Find Starlink 32226

NORAD ID: 60426 Int'l Des: 2024-144 Owner: SPXS Country: US Constellation: starlink operational
LEOCIRCULAR

Current View

Loading 3D Globe...

About Starlink 32226

Starlink 32226 (NORAD 60426) is a starlink constellation satellite (v2 mini) launched Aug 12, 2024 by SPXS of US. It operates in LEO, CIRCULAR orbit with a mass of 730.00 kg.

About Starlink 32226

Description loading...

Upcoming Passes

Passes for default location (London). Set your location on the main map for personalized predictions.

Altitude History

Loading altitude history...

Two-Line Element Set

1 60426U 24144B 26168.13197314 -.00000993 00000-0 -18270-4 0 9990
2 60426 53.1619 115.2790 0001295 92.3383 267.7767 15.34396723104533
Epoch: Jun 17, 2026 • Age: 30 hours

Current Status

Altitude 465.4 km
Velocity 7.64 km/s
Sub-Earth Point 38.66°N, 103.04°E
Launch Date Aug 12, 2024
Age 1.8 years
Type internet

Technical Details

Classification Payload
Mass 730.00 kg
Dry Mass 700.00 kg
Total Mass 730.00 kg
Length 0.30 m
Diameter 4.10 m
Span 29.00 m
Shape Box + pan
Manufacturer SPXS
Bus Type Starlink V2M
Phase Status In Orbit
Owner/State SPXS/US

Most Searched